QPF
0.01 0.01 0.02 0.03 0.04 0.05 0.07 0.05 0.04 0.03 0.03 0.02 0.02 0.02 0.01 0.01 0.02 0.02 0.02 0.02 0.02 0.02 0.02 0.03 0.05 0.04 0.02 0.02 0.03 0.04 0.04 0.04 0.04 0.04 0.03 0.03 0.03 0.03 0.02 0.02 0.02 0.03 0.04
0.01 0.01 0.02 0.03 0.04 0.04 0.05 0.06 0.04 0.03 0.03 0.03 0.02 0.01 0.01 0.01 0.02 0.03 0.02 0.02 0.02 0.02 0.03 0.04 0.04 0.03 0.02 0.01 0.01 0.02 0.03 0.03 0.02 0.02 0.01 0.01 0.02 0.01 0.01 0.01 0.02 0.03 0.04
0.01 0.01 0.02 0.03 0.04 0.04 0.04 0.06 0.06 0.04 0.03 0.03 0.03 0.02 0.02 0.02 0.02 0.03 0.04 0.03 0.02 0.03 0.04 0.03 0.03 0.04 0.03 0.01 0.01 0.01 0.02 0.01 0.01 0.01 0.00 0.01 0.01 0.01 0.01 0.01 0.02 0.03 0.03
0.01 0.01 0.02 0.03 0.04 0.04 0.04 0.05 0.05 0.04 0.05 0.03 0.03 0.03 0.03 0.03 0.03 0.03 0.04 0.04 0.03 0.03 0.03 0.03 0.02 0.02 0.02 0.01 0.01 0.01 0.01 0.01 0.00 0.00 0.00 0.01 0.01 0.02 0.01 0.01 0.01 0.02 0.02
0.02 0.01 0.01 0.03 0.03 0.04 0.04 0.04 0.03 0.04 0.04 0.04 0.03 0.03 0.03 0.03 0.03 0.04 0.04 0.05 0.04 0.03 0.03 0.02 0.01 0.01 0.01 0.01 0.01 0.01 0.01 0.01 0.00 0.00 0.00 0.01 0.02 0.03 0.03 0.02 0.02 0.02 0.01
0.01 0.01 0.01 0.02 0.03 0.03 0.04 0.04 0.05 0.04 0.04 0.04 0.03 0.03 0.03 0.03 0.03 0.03 0.03 0.04 0.05 0.04 0.03 0.02 0.02 0.02 0.02 0.02 0.01 0.01 0.01 0.00 0.00 0.00 0.00 0.01 0.02 0.05 0.06 0.04 0.03 0.03 0.03
0.01 0.01 0.01 0.02 0.03 0.04 0.04 0.04 0.03 0.04 0.05 0.04 0.04 0.04 0.03 0.02 0.02 0.02 0.02 0.03 0.04 0.05 0.03 0.03 0.03 0.02 0.03 0.02 0.02 0.02 0.01 0.00 0.00 0.00 0.01 0.01 0.03 0.04 0.05 0.04 0.03 0.04 0.03
0.01 0.01 0.02 0.03 0.04 0.04 0.03 0.03 0.02 0.03 0.04 0.04 0.04 0.04 0.04 0.02 0.02 0.01 0.01 0.03 0.04 0.05 0.04 0.03 0.02 0.03 0.03 0.03 0.02 0.02 0.01 0.00 0.00 0.00 0.01 0.02 0.03 0.04 0.05 0.04 0.03 0.03 0.02
0.01 0.01 0.02 0.03 0.03 0.04 0.03 0.02 0.02 0.02 0.03 0.03 0.04 0.04 0.03 0.03 0.02 0.01 0.01 0.03 0.04 0.05 0.04 0.03 0.02 0.03 0.03 0.03 0.02 0.02 0.01 0.00 0.00 0.00 0.00 0.02 0.02 0.03 0.05 0.06 0.06 0.05 0.03
0.01 0.02 0.02 0.03 0.03 0.03 0.03 0.02 0.02 0.02 0.02 0.02 0.03 0.03 0.02 0.01 0.02 0.02 0.02 0.03 0.03 0.04 0.04 0.03 0.03 0.04 0.04 0.03 0.02 0.01 0.01 0.01 0.01 0.01 0.01 0.01 0.03 0.04 0.04 0.05 0.06 0.06 0.05
0.01 0.01 0.02 0.03 0.03 0.03 0.02 0.02 0.02 0.02 0.02 0.02 0.02 0.02 0.02 0.01 0.01 0.02 0.02 0.02 0.03 0.04 0.04 0.03 0.04 0.05 0.03 0.03 0.02 0.01 0.01 0.01 0.01 0.01 0.01 0.01 0.03 0.04 0.03 0.04 0.06 0.05 0.05
0.01 0.01 0.02 0.03 0.03 0.04 0.03 0.03 0.02 0.02 0.02 0.03 0.03 0.03 0.03 0.02 0.01 0.02 0.02 0.02 0.03 0.04 0.04 0.04 0.04 0.04 0.03 0.02 0.02 0.01 0.01 0.01 0.01 0.02 0.02 0.03 0.03 0.04 0.03 0.04 0.05 0.05 0.05
0.02 0.02 0.02 0.03 0.03 0.03 0.03 0.03 0.03 0.02 0.03 0.03 0.03 0.04 0.03 0.03 0.02 0.02 0.02 0.03 0.04 0.05 0.06 0.05 0.03 0.03 0.02 0.02 0.02 0.01 0.00 0.00 0.01 0.02 0.03 0.03 0.04 0.05 0.05 0.04 0.04 0.05 0.04
0.02 0.03 0.03 0.03 0.03 0.03 0.03 0.03 0.03 0.03 0.02 0.02 0.03 0.04 0.04 0.04 0.04 0.02 0.02 0.04 0.05 0.05 0.06 0.05 0.03 0.02 0.02 0.02 0.02 0.01 0.00 0.00 0.00 0.01 0.02 0.03 0.04 0.05 0.06 0.06 0.05 0.06 0.05
0.02 0.03 0.03 0.04 0.04 0.04 0.03 0.02 0.03 0.03 0.03 0.02 0.02 0.03 0.03 0.04 0.05 0.08 0.07 0.06 0.06 0.05 0.06 0.06 0.03 0.02 0.02 0.02 0.03 0.02 0.01 0.01 0.00 0.01 0.01 0.01 0.03 0.04 0.05 0.05 0.05 0.05 0.04
0.02 0.03 0.03 0.04 0.04 0.05 0.05 0.03 0.02 0.02 0.03 0.03 0.01 0.02 0.03 0.03 0.03 0.04 0.08 0.09 0.09 0.08 0.08 0.06 0.04 0.03 0.02 0.02 0.03 0.03 0.02 0.01 0.01 0.01 0.01 0.01 0.01 0.02 0.03 0.04 0.04 0.05 0.05
0.03 0.03 0.03 0.04 0.05 0.05 0.04 0.03 0.02 0.02 0.03 0.03 0.02 0.02 0.03 0.03 0.03 0.03 0.04 0.05 0.05 0.07 0.07 0.05 0.04 0.03 0.03 0.02 0.02 0.02 0.02 0.01 0.01 0.01 0.01 0.01 0.01 0.01 0.01 0.03 0.04 0.04 0.04
0.03 0.03 0.03 0.04 0.05 0.05 0.05 0.04 0.03 0.03 0.03 0.02 0.02 0.02 0.02 0.03 0.03 0.02 0.04 0.04 0.03 0.02 0.04 0.05 0.04 0.03 0.02 0.02 0.02 0.02 0.03 0.02 0.01 0.01 0.01 0.02 0.02 0.01 0.01 0.02 0.03 0.04 0.04
0.02 0.02 0.03 0.04 0.04 0.05 0.05 0.04 0.04 0.04 0.04 0.03 0.02 0.02 0.02 0.02 0.02 0.02 0.02 0.03 0.03 0.03 0.03 0.04 0.04 0.03 0.02 0.02 0.02 0.02 0.03 0.05 0.04 0.02 0.02 0.02 0.03 0.02 0.02 0.01 0.02 0.02 0.03
0.01 0.01 0.02 0.03 0.03 0.04 0.04 0.03 0.03 0.05 0.06 0.05 0.04 0.04 0.02 0.01 0.02 0.02 0.02 0.03 0.04 0.04 0.03 0.03 0.04 0.06 0.04 0.03 0.03 0.03 0.05 0.08 0.08 0.06 0.05 0.04 0.04 0.03 0.03 0.02 0.02 0.02 0.03
0.00 0.01 0.02 0.03 0.04 0.04 0.04 0.04 0.04 0.04 0.06 0.06 0.04 0.02 0.02 0.02 0.02 0.02 0.03 0.04 0.04 0.05 0.05 0.04 0.03 0.05 0.07 0.06 0.05 0.04 0.05 0.11 0.12 0.07 0.05 0.04 0.03 0.02 0.02 0.02 0.03 0.02 0.03
0.00 0.00 0.01 0.02 0.03 0.04 0.05 0.05 0.04 0.04 0.05 0.04 0.02 0.01 0.01 0.02 0.02 0.02 0.03 0.04 0.05 0.05 0.05 0.04 0.04 0.04 0.06 0.07 0.08 0.06 0.04 0.08 0.12 0.08 0.04 0.03 0.03 0.02 0.02 0.01 0.02 0.02 0.03
0.00 0.00 0.01 0.01 0.03 0.04 0.05 0.05 0.05 0.05 0.04 0.04 0.03 0.01 0.01 0.02 0.02 0.03 0.03 0.04 0.04 0.05 0.05 0.05 0.05 0.04 0.04 0.05 0.07 0.07 0.06 0.06 0.07 0.08 0.05 0.03 0.02 0.01 0.01 0.01 0.01 0.02 0.02
0.00 0.00 0.00 0.01 0.03 0.05 0.06 0.07 0.06 0.04 0.04 0.04 0.03 0.03 0.02 0.02 0.02 0.02 0.03 0.05 0.06 0.06 0.05 0.06 0.06 0.05 0.04 0.04 0.06 0.07 0.05 0.04 0.04 0.06 0.05 0.03 0.02 0.01 0.01 0.01 0.01 0.01 0.02
0.00 0.00 0.00 0.01 0.03 0.04 0.06 0.09 0.09 0.07 0.05 0.05 0.04 0.04 0.02 0.02 0.02 0.03 0.04 0.05 0.06 0.07 0.08 0.08 0.06 0.06 0.06 0.05 0.05 0.05 0.06 0.05 0.05 0.05 0.04 0.03 0.02 0.02 0.01 0.01 0.00 0.00 0.01
0.00 0.00 0.00 0.00 0.02 0.04 0.05 0.07 0.09 0.08 0.06 0.06 0.04 0.03 0.03 0.02 0.02 0.02 0.04 0.05 0.05 0.06 0.07 0.07 0.07 0.06 0.06 0.06 0.05 0.04 0.05 0.05 0.05 0.05 0.04 0.02 0.02 0.01 0.01 0.01 0.01 0.00 0.01
MSLP
1021.17 1021.27 1021.34 1021.41 1021.46 1021.50 1021.50 1021.45 1021.34 1021.17 1020.95 1020.70 1020.45 1020.21 1020.00 1019.83 1019.69 1019.57 1019.45 1019.32 1019.19 1019.05 1018.93 1018.84 1018.79 1018.78 1018.80 1018.82 1018.83 1018.82 1018.78 1018.71 1018.63 1018.55 1018.48 1018.43 1018.39 1018.36 1018.30 1018.21 1018.10 1017.96 1017.81
1021.47 1021.52 1021.57 1021.61 1021.66 1021.71 1021.73 1021.71 1021.64 1021.51 1021.33 1021.12 1020.90 1020.71 1020.54 1020.41 1020.30 1020.19 1020.07 1019.94 1019.79 1019.64 1019.51 1019.42 1019.37 1019.36 1019.37 1019.38 1019.37 1019.32 1019.22 1019.09 1018.95 1018.81 1018.71 1018.65 1018.62 1018.60 1018.57 1018.52 1018.42 1018.28 1018.13
1021.81 1021.83 1021.84 1021.86 1021.90 1021.95 1021.99 1022.00 1021.96 1021.87 1021.73 1021.57 1021.41 1021.26 1021.15 1021.05 1020.96 1020.86 1020.74 1020.59 1020.41 1020.24 1020.09 1019.98 1019.92 1019.90 1019.91 1019.90 1019.86 1019.76 1019.60 1019.40 1019.19 1019.01 1018.87 1018.79 1018.76 1018.77 1018.77 1018.75 1018.69 1018.58 1018.44
1022.18 1022.17 1022.17 1022.18 1022.22 1022.27 1022.33 1022.35 1022.34 1022.28 1022.18 1022.06 1021.94 1021.84 1021.76 1021.69 1021.61 1021.52 1021.38 1021.20 1021.00 1020.80 1020.62 1020.49 1020.41 1020.38 1020.37 1020.34 1020.26 1020.12 1019.91 1019.65 1019.38 1019.14 1018.96 1018.86 1018.83 1018.86 1018.90 1018.93 1018.91 1018.83 1018.72
1022.55 1022.54 1022.54 1022.56 1022.61 1022.67 1022.74 1022.78 1022.78 1022.73 1022.65 1022.55 1022.46 1022.38 1022.32 1022.27 1022.20 1022.10 1021.95 1021.75 1021.52 1021.29 1021.08 1020.92 1020.82 1020.77 1020.74 1020.69 1020.58 1020.40 1020.15 1019.84 1019.52 1019.23 1019.02 1018.90 1018.87 1018.91 1018.98 1019.05 1019.08 1019.05 1018.97
1022.92 1022.93 1022.94 1022.99 1023.06 1023.14 1023.22 1023.26 1023.26 1023.21 1023.13 1023.03 1022.93 1022.86 1022.81 1022.76 1022.70 1022.60 1022.44 1022.23 1021.98 1021.72 1021.49 1021.30 1021.17 1021.10 1021.04 1020.96 1020.83 1020.62 1020.34 1020.01 1019.66 1019.34 1019.10 1018.96 1018.92 1018.96 1019.05 1019.14 1019.21 1019.22 1019.19
1023.29 1023.32 1023.37 1023.44 1023.54 1023.65 1023.74 1023.78 1023.77 1023.70 1023.59 1023.47 1023.35 1023.27 1023.21 1023.16 1023.10 1023.01 1022.86 1022.65 1022.40 1022.13 1021.88 1021.67 1021.51 1021.41 1021.32 1021.21 1021.06 1020.83 1020.54 1020.19 1019.83 1019.51 1019.25 1019.09 1019.03 1019.06 1019.14 1019.24 1019.32 1019.36 1019.37
1023.66 1023.71 1023.78 1023.89 1024.02 1024.15 1024.24 1024.28 1024.25 1024.16 1024.02 1023.87 1023.73 1023.61 1023.54 1023.49 1023.44 1023.36 1023.23 1023.04 1022.81 1022.55 1022.29 1022.07 1021.88 1021.74 1021.61 1021.47 1021.29 1021.06 1020.76 1020.42 1020.07 1019.74 1019.48 1019.30 1019.22 1019.21 1019.27 1019.34 1019.42 1019.47 1019.49
1024.07 1024.11 1024.19 1024.30 1024.45 1024.58 1024.68 1024.72 1024.67 1024.56 1024.40 1024.22 1024.05 1023.92 1023.84 1023.78 1023.74 1023.68 1023.58 1023.43 1023.23 1022.99 1022.75 1022.51 1022.30 1022.11 1021.94 1021.77 1021.56 1021.31 1021.02 1020.70 1020.36 1020.05 1019.79 1019.60 1019.48 1019.43 1019.44 1019.47 1019.51 1019.54 1019.57
1024.52 1024.52 1024.57 1024.67 1024.80 1024.93 1025.02 1025.05 1025.01 1024.89 1024.72 1024.53 1024.35 1024.21 1024.12 1024.06 1024.02 1023.99 1023.92 1023.81 1023.65 1023.45 1023.21 1022.98 1022.74 1022.52 1022.31 1022.09 1021.85 1021.59 1021.30 1020.99 1020.68 1020.39 1020.14 1019.94 1019.79 1019.69 1019.64 1019.61 1019.60 1019.59 1019.60
1025.03 1024.95 1024.93 1024.98 1025.07 1025.17 1025.25 1025.27 1025.24 1025.13 1024.98 1024.81 1024.64 1024.49 1024.39 1024.33 1024.30 1024.27 1024.23 1024.15 1024.03 1023.86 1023.65 1023.42 1023.17 1022.92 1022.66 1022.40 1022.13 1021.85 1021.56 1021.27 1020.99 1020.73 1020.49 1020.28 1020.11 1019.96 1019.84 1019.75 1019.67 1019.62 1019.60
1025.61 1025.42 1025.30 1025.26 1025.27 1025.32 1025.36 1025.39 1025.37 1025.30 1025.19 1025.05 1024.91 1024.78 1024.67 1024.60 1024.55 1024.52 1024.48 1024.42 1024.33 1024.19 1024.01 1023.79 1023.53 1023.25 1022.96 1022.65 1022.35 1022.05 1021.76 1021.49 1021.24 1021.00 1020.79 1020.58 1020.39 1020.21 1020.04 1019.88 1019.75 1019.65 1019.58
1026.24 1025.93 1025.69 1025.54 1025.45 1025.41 1025.42 1025.43 1025.43 1025.41 1025.36 1025.28 1025.18 1025.07 1024.96 1024.86 1024.78 1024.71 1024.65 1024.59 1024.50 1024.39 1024.23 1024.03 1023.78 1023.49 1023.17 1022.83 1022.50 1022.18 1021.89 1021.62 1021.39 1021.19 1021.00 1020.81 1020.62 1020.41 1020.20 1020.00 1019.81 1019.67 1019.57
1026.94 1026.52 1026.15 1025.86 1025.65 1025.52 1025.46 1025.46 1025.48 1025.51 1025.53 1025.51 1025.46 1025.36 1025.25 1025.11 1024.98 1024.85 1024.75 1024.65 1024.55 1024.45 1024.31 1024.12 1023.89 1023.60 1023.27 1022.92 1022.56 1022.22 1021.92 1021.66 1021.45 1021.28 1021.12 1020.96 1020.78 1020.57 1020.34 1020.11 1019.89 1019.71 1019.59
1027.69 1027.18 1026.70 1026.28 1025.94 1025.71 1025.57 1025.54 1025.57 1025.65 1025.73 1025.77 1025.77 1025.69 1025.56 1025.38 1025.17 1024.97 1024.79 1024.64 1024.52 1024.40 1024.28 1024.11 1023.90 1023.62 1023.29 1022.92 1022.55 1022.19 1021.88 1021.63 1021.43 1021.29 1021.16 1021.03 1020.87 1020.69 1020.46 1020.22 1019.99 1019.79 1019.64
1028.51 1027.94 1027.36 1026.83 1026.37 1026.03 1025.82 1025.74 1025.77 1025.88 1026.01 1026.11 1026.14 1026.08 1025.92 1025.69 1025.41 1025.12 1024.85 1024.64 1024.47 1024.33 1024.21 1024.06 1023.86 1023.59 1023.27 1022.89 1022.50 1022.13 1021.81 1021.55 1021.36 1021.23 1021.13 1021.04 1020.92 1020.77 1020.57 1020.35 1020.11 1019.91 1019.75
1029.38 1028.78 1028.15 1027.53 1026.98 1026.54 1026.25 1026.12 1026.14 1026.26 1026.42 1026.56 1026.61 1026.56 1026.37 1026.09 1025.73 1025.36 1025.01 1024.72 1024.49 1024.33 1024.18 1024.03 1023.84 1023.58 1023.25 1022.87 1022.46 1022.07 1021.72 1021.45 1021.26 1021.14 1021.07 1021.01 1020.94 1020.83 1020.67 1020.47 1020.26 1020.05 1019.88
1030.29 1029.70 1029.05 1028.38 1027.75 1027.24 1026.88 1026.70 1026.69 1026.80 1026.97 1027.13 1027.20 1027.14 1026.93 1026.61 1026.19 1025.74 1025.32 1024.96 1024.67 1024.46 1024.29 1024.12 1023.91 1023.64 1023.29 1022.89 1022.45 1022.03 1021.66 1021.36 1021.16 1021.05 1020.99 1020.96 1020.93 1020.86 1020.74 1020.58 1020.39 1020.20 1020.03
1031.22 1030.68 1030.04 1029.35 1028.68 1028.12 1027.70 1027.47 1027.42 1027.51 1027.67 1027.82 1027.89 1027.83 1027.61 1027.25 1026.80 1026.29 1025.81 1025.38 1025.04 1024.77 1024.55 1024.34 1024.10 1023.79 1023.41 1022.97 1022.49 1022.03 1021.62 1021.30 1021.07 1020.95 1020.89 1020.88 1020.88 1020.85 1020.77 1020.65 1020.49 1020.32 1020.15
1032.16 1031.67 1031.06 1030.39 1029.73 1029.14 1028.69 1028.42 1028.32 1028.37 1028.50 1028.63 1028.68 1028.60 1028.37 1028.00 1027.53 1026.99 1026.47 1026.00 1025.59 1025.26 1024.98 1024.71 1024.40 1024.04 1023.60 1023.11 1022.58 1022.08 1021.62 1021.26 1021.00 1020.85 1020.79 1020.77 1020.78 1020.77 1020.73 1020.64 1020.52 1020.37 1020.21
1033.06 1032.64 1032.09 1031.46 1030.82 1030.24 1029.78 1029.48 1029.34 1029.33 1029.41 1029.49 1029.51 1029.42 1029.18 1028.81 1028.33 1027.79 1027.25 1026.74 1026.29 1025.89 1025.53 1025.18 1024.80 1024.36 1023.85 1023.30 1022.72 1022.16 1021.66 1021.25 1020.95 1020.77 1020.67 1020.64 1020.64 1020.63 1020.60 1020.54 1020.44 1020.31 1020.18
1033.91 1033.54 1033.07 1032.51 1031.92 1031.37 1030.92 1030.59 1030.41 1030.34 1030.35 1030.37 1030.35 1030.22 1029.98 1029.61 1029.14 1028.61 1028.06 1027.54 1027.05 1026.59 1026.16 1025.72 1025.25 1024.73 1024.16 1023.54 1022.91 1022.30 1021.75 1021.29 1020.94 1020.71 1020.57 1020.49 1020.45 1020.43 1020.39 1020.33 1020.25 1020.15 1020.05
1034.66 1034.36 1033.96 1033.48 1032.97 1032.47 1032.04 1031.70 1031.47 1031.34 1031.27 1031.21 1031.12 1030.96 1030.70 1030.33 1029.89 1029.38 1028.85 1028.31 1027.79 1027.29 1026.79 1026.28 1025.73 1025.14 1024.50 1023.83 1023.15 1022.50 1021.92 1021.41 1021.01 1020.71 1020.50 1020.36 1020.26 1020.18 1020.12 1020.05 1019.97 1019.89 1019.81
1035.30 1035.05 1034.73 1034.34 1033.91 1033.48 1033.08 1032.74 1032.47 1032.27 1032.11 1031.97 1031.81 1031.59 1031.31 1030.95 1030.52 1030.04 1029.53 1029.00 1028.47 1027.93 1027.38 1026.81 1026.20 1025.56 1024.87 1024.17 1023.47 1022.80 1022.18 1021.64 1021.18 1020.81 1020.51 1020.28 1020.10 1019.95 1019.82 1019.71 1019.62 1019.55 1019.50
1035.82 1035.61 1035.37 1035.07 1034.73 1034.37 1034.01 1033.67 1033.37 1033.09 1032.85 1032.61 1032.37 1032.09 1031.78 1031.42 1031.01 1030.56 1030.08 1029.57 1029.05 1028.49 1027.92 1027.31 1026.66 1025.99 1025.28 1024.57 1023.87 1023.19 1022.56 1021.99 1021.47 1021.03 1020.64 1020.30 1020.01 1019.76 1019.55 1019.39 1019.27 1019.19 1019.15
1036.20 1036.04 1035.86 1035.65 1035.40 1035.12 1034.80 1034.47 1034.13 1033.79 1033.46 1033.13 1032.81 1032.48 1032.13 1031.77 1031.38 1030.96 1030.51 1030.03 1029.51 1028.96 1028.38 1027.75 1027.10 1026.42 1025.72 1025.03 1024.34 1023.68 1023.04 1022.44 1021.88 1021.36 1020.88 1020.43 1020.02 1019.66 1019.36 1019.12 1018.95 1018.85 1018.81
Thickness
5700 5698 5695 5695 5695 5694 5694 5693 5693 5694 5694 5694 5694 5695 5695 5696 5696 5697 5697 5698 5699 5699 5700 5701 5701 5701 5702 5702 5702 5702 5703 5703 5704 5704 5704 5705 5705 5706 5706 5707 5708 5708 5707
5696 5694 5691 5691 5690 5690 5690 5689 5689 5689 5690 5690 5690 5691 5691 5692 5692 5693 5693 5694 5695 5695 5696 5696 5697 5697 5698 5698 5698 5698 5699 5699 5699 5700 5701 5701 5701 5702 5702 5703 5704 5705 5704
5692 5690 5687 5686 5686 5685 5685 5685 5685 5685 5685 5686 5686 5686 5687 5687 5688 5688 5689 5690 5690 5691 5691 5692 5692 5693 5693 5694 5694 5694 5694 5695 5695 5696 5698 5700 5698 5698 5698 5699 5700 5700 5700
5686 5685 5683 5681 5681 5681 5681 5681 5680 5680 5681 5681 5681 5682 5682 5683 5683 5684 5684 5685 5686 5686 5687 5687 5688 5688 5689 5689 5690 5690 5690 5690 5691 5694 5697 5697 5696 5694 5694 5695 5695 5696 5696
5681 5680 5678 5676 5676 5676 5676 5676 5676 5676 5676 5676 5677 5677 5678 5678 5679 5679 5680 5681 5681 5682 5682 5682 5683 5683 5684 5685 5685 5686 5686 5686 5688 5690 5692 5693 5692 5690 5691 5691 5691 5692 5692
5675 5674 5672 5670 5670 5670 5670 5670 5670 5671 5671 5671 5672 5672 5673 5673 5674 5674 5675 5675 5676 5677 5677 5678 5678 5679 5679 5680 5681 5681 5682 5682 5685 5687 5688 5688 5688 5686 5687 5687 5687 5687 5687
5669 5667 5666 5664 5664 5664 5663 5664 5664 5665 5666 5666 5667 5667 5668 5668 5669 5669 5669 5670 5671 5672 5673 5673 5674 5674 5675 5675 5676 5676 5677 5678 5682 5683 5683 5683 5683 5682 5683 5683 5683 5683 5683
5662 5661 5660 5658 5658 5657 5657 5657 5658 5659 5659 5660 5661 5662 5662 5663 5663 5664 5664 5665 5666 5667 5667 5668 5668 5669 5670 5670 5671 5671 5672 5674 5676 5678 5678 5679 5677 5678 5678 5678 5678 5678 5678
5654 5654 5653 5652 5651 5650 5650 5651 5651 5652 5653 5654 5655 5656 5657 5657 5658 5658 5659 5660 5661 5662 5662 5663 5663 5664 5665 5665 5665 5666 5667 5669 5673 5673 5674 5674 5673 5673 5674 5674 5674 5674 5674
5647 5646 5645 5645 5644 5644 5644 5644 5644 5645 5646 5647 5648 5649 5650 5651 5652 5653 5654 5655 5655 5656 5657 5657 5658 5659 5659 5660 5660 5661 5663 5665 5668 5668 5669 5668 5668 5669 5669 5669 5669 5669 5669
5639 5638 5637 5637 5637 5636 5637 5636 5637 5637 5638 5639 5641 5642 5644 5646 5647 5648 5648 5649 5649 5650 5651 5652 5652 5653 5654 5654 5655 5656 5658 5661 5663 5663 5663 5662 5663 5664 5664 5664 5664 5665 5665
5631 5630 5629 5629 5628 5628 5629 5629 5629 5630 5631 5632 5634 5635 5637 5639 5641 5642 5642 5643 5644 5644 5645 5646 5647 5648 5649 5651 5651 5651 5654 5656 5657 5657 5657 5657 5658 5659 5659 5659 5659 5659 5660
5623 5622 5621 5620 5620 5620 5620 5621 5621 5622 5623 5624 5626 5627 5629 5631 5633 5634 5636 5636 5638 5638 5640 5640 5642 5643 5645 5646 5647 5648 5649 5651 5652 5652 5651 5651 5652 5653 5654 5654 5654 5654 5654
5614 5613 5613 5612 5612 5612 5611 5612 5612 5613 5614 5615 5617 5619 5621 5623 5625 5627 5629 5630 5631 5632 5633 5635 5636 5637 5639 5640 5641 5642 5644 5645 5646 5646 5646 5645 5646 5647 5648 5648 5648 5649 5649
5605 5605 5604 5603 5603 5603 5602 5603 5603 5604 5606 5606 5608 5610 5612 5614 5616 5619 5620 5622 5624 5625 5627 5628 5630 5631 5632 5633 5634 5636 5637 5638 5639 5640 5639 5639 5640 5641 5641 5642 5642 5643 5643
5597 5596 5594 5593 5593 5593 5593 5593 5594 5595 5596 5598 5599 5601 5603 5605 5608 5610 5612 5613 5615 5617 5619 5621 5623 5624 5625 5626 5627 5628 5630 5631 5632 5633 5633 5633 5633 5634 5635 5636 5636 5637 5637
5587 5586 5585 5584 5583 5584 5584 5584 5585 5586 5587 5588 5590 5592 5594 5596 5599 5601 5604 5605 5607 5609 5611 5613 5614 5616 5618 5619 5620 5621 5622 5623 5624 5626 5626 5627 5627 5627 5627 5628 5629 5630 5631
5575 5575 5574 5573 5573 5573 5574 5574 5575 5576 5577 5579 5580 5582 5585 5587 5590 5592 5595 5597 5598 5600 5602 5605 5607 5609 5610 5612 5612 5613 5614 5614 5616 5618 5619 5620 5620 5621 5620 5621 5622 5623 5624
5561 5562 5562 5562 5562 5563 5563 5564 5565 5566 5567 5568 5570 5572 5574 5577 5580 5583 5586 5588 5589 5591 5593 5596 5598 5600 5602 5603 5603 5604 5605 5606 5608 5610 5611 5612 5612 5613 5614 5614 5615 5616 5617
5547 5548 5549 5549 5550 5550 5551 5553 5555 5556 5557 5558 5560 5561 5564 5566 5569 5573 5576 5578 5580 5583 5585 5586 5588 5590 5592 5594 5595 5595 5596 5598 5599 5601 5602 5603 5604 5605 5606 5607 5608 5609 5610
5534 5534 5535 5536 5537 5537 5539 5541 5543 5545 5546 5547 5548 5550 5552 5555 5558 5561 5565 5568 5570 5573 5576 5577 5578 5580 5582 5584 5586 5586 5587 5589 5590 5592 5593 5595 5596 5597 5598 5599 5601 5602 5603
5519 5520 5521 5522 5523 5524 5525 5527 5529 5531 5533 5535 5536 5539 5541 5544 5546 5550 5553 5557 5560 5563 5566 5567 5569 5571 5573 5575 5578 5580 5581 5581 5582 5583 5585 5586 5588 5589 5590 5591 5592 5594 5595
5505 5505 5506 5507 5509 5510 5511 5513 5516 5518 5521 5523 5525 5527 5530 5533 5535 5538 5542 5545 5549 5552 5556 5558 5559 5562 5564 5566 5569 5574 5577 5580 5578 5576 5576 5577 5579 5581 5582 5583 5584 5586 5586
5490 5491 5492 5493 5494 5496 5498 5500 5502 5505 5509 5511 5513 5515 5518 5521 5524 5527 5530 5534 5537 5541 5544 5548 5550 5553 5555 5558 5559 5562 5567 5570 5571 5570 5568 5569 5570 5572 5574 5575 5576 5577 5578
5476 5477 5478 5480 5481 5482 5484 5486 5489 5491 5494 5497 5499 5502 5506 5509 5511 5514 5518 5521 5525 5529 5533 5536 5539 5542 5546 5549 5551 5553 5555 5557 5562 5564 5564 5562 5562 5563 5565 5566 5567 5568 5569
5462 5463 5464 5467 5468 5469 5470 5472 5475 5477 5480 5482 5486 5489 5493 5496 5499 5502 5504 5508 5513 5517 5521 5524 5528 5531 5535 5538 5541 5544 5547 5550 5553 5555 5556 5556 5556 5556 5556 5557 5558 5559 5560